Atlantic - Newfoundland: Past 24 Hour Conditions

 

J.A. Douglas McCurdy Sydney Airport

07:00 PM ADT 25 October 2014
This table is a summary of hourly weather conditions for the past 24 hours.
Date / Time
(ADT)
Wind(knots) Conditions Visibility(km) Pressure(kPa) Air tempC) Relative humidity(%) Dew pointC)
25 October 2014
19:00 ENE 6 Light Drizzle 2 99.7 10 98 10
18:00 NE 10 Light Drizzle 2 99.6 10 98 9
17:00 NE 10 Light Drizzle 1 99.6 10 98 10
16:00 NNE 15 Light Drizzle 1 99.5 10 98 10
15:00 NE 9 gust 16 Light Drizzle 1 99.5 11 98 11
14:00 NE 11 Light Drizzle 1 99.5 11 98 11
13:00 NE 11 Light Drizzle 1 99.4 12 99 11
12:00 ENE 11 gust 16 Light Drizzle 2 99.4 12 99 12
11:00 ENE 8 Light Rain 2 99.4 12 99 12
10:00 NE 11 Light Rain 1 99.4 12 99 12
9:00 NE 8 Light Rain 3 99.3 13 99 12
8:00 N 6 Rain 2 99.3 12 99 12
7:00 NNW 3 Light Drizzle 0.8 99.3 12 99 12
6:00 NNW 5 Light Drizzle 0.4 99.3 12 99 12
5:00 N 4 Light Rain 0.4 99.3 12 99 12
4:00 N 5 Fog 0.4 99.3 12 99 12
3:00 NNW 6 Light Rainshower 1 99.3 12 99 12
2:00 N 5 Light Rainshower 2 99.4 12 99 12
1:00 NNW 5 Light Rainshower 2 99.5 12 99 12
0:00 N 4 Light Rain 0.6 99.5 12 99 12
24 October 2014
23:00 N 6 Fog 0.4 99.6 12 99 12
22:00 N 8 Fog 0.4 99.7 12 99 12
21:00 N 5 Fog 0.4 99.7 12 99 12
20:00 NE 4 Light Drizzle 0.6 99.8 12 99 12
19:00 NE 5 Light Drizzle 0.4 99.9 12 99 12
 
Map of Atlantic - Newfoundland marine weather areas Southwestern Grand Banks - 44138 Banquereau - 44139 Tail of the Bank - 44140 Nickerson Bank - 44251 Northeast Burgeo Bank - 44255 Blanc-Sablon Airport Cap Whittle Chevery Natashquan Airport Heath Point Miscou Island Grand Étang Ingonish Beach North Mountain St.Paul Island J.A. Douglas McCurdy Sydney Airport Charlottetown Airport East Point North Cape Argentia Bonavista Burgeo Cape Race Corner Brook Daniel's Harbour Englee Ferolle Point La Scie Port aux Basques Rocky Harbour Sagona Island St. Anthony Airport St. John's Int'l Airport St. Lawrence Stephenville Airport Twillingate Winterland Wreckhouse Cartwright Airport Mary's Harbour Grates Cove Pool's Island Marticot Island Long Pond Îles de la Madeleine Airport
Legend: buoyBuoy land stationLand Station